Houston, TX

8:58 PM CDT on March 24, 2017 (GMT -0500)
Hobby

Weather History for KHOU - May, 2012

Change the Weather History Date:

Wednesday, May 23, 2012

  Actual Average Record
Temperature  
Mean Temperature 81 °F 79 °F  
Max Temperature 90 °F 88 °F 95 °F (1996)
Min Temperature 72 °F 69 °F 45 °F (1892)
Cooling Degree Days 16 14  
Month to date cooling degree days 291 255  
Year to date cooling degree days 815 536  
Growing Degree Days 29 (Base 50)    
Moisture  
Dew Point 67 °F    
Average Humidity 63    
Maximum Humidity 84    
Minimum Humidity 41    
Precipitation  
Precipitation 0.00 in 0.16 in 3.99 in (1959)
Month to date precipitation 0.77 3.75  
Year to date precipitation 22.24 17.05  
Sea Level Pressure  
Sea Level Pressure 29.81 in    
Wind  
Wind Speed 7 mph (South)    
Max Wind Speed 22 mph    
Max Gust Speed 31 mph    
Visibility 10 miles    
Events      
T = Trace of Precipitation, MM = Missing Value Source: NWS Daily Summary

Daily Weather History Graph

Daily Weather History Graph

Search for Another Location

Airport or City:

Trip Planner

Search our weather history database for the weather conditions in past years. The results will help you decide how hot, cold, wet, or windy it might be!

Date:

Astronomy

May. 23, 2012 Rise Set
Actual Time 6:24 AM CDT 8:12 PM CDT
Civil Twilight 5:57 AM CDT 8:38 PM CDT
Nautical Twilight 5:25 AM CDT 9:10 PM CDT
Astronomical Twilight 4:51 AM CDT 9:44 PM CDT
Moon 8:28 AM CDT (5/23) 10:35 PM CDT (5/23)
Length of Visible Light 14h 41m
Length of Day
13h 48m
Waxing Crescent, 7% of the Moon is Illuminated
May 23
Waxing Crescent
May 28
First Quarter
Jun 4
Full
Jun 11
Last Quarter
Jun 19
New

Hourly Weather History & Observations

Time (CDT) Temp. Heat Index Dew Point Humidity Pressure Visibility Wind Dir Wind Speed Gust Speed Precip Events Conditions
12:53 AM 73.9 °F - 68.0 °F 82% 29.87 in 10.0 mi SW 4.6 mph - N/A   Clear
1:53 AM 73.0 °F - 68.0 °F 84% 29.86 in 10.0 mi SSW 5.8 mph - N/A   Clear
2:53 AM 71.6 °F - 68.0 °F 88% 29.83 in 10.0 mi SSW 3.5 mph - N/A   Clear
3:53 AM 72.0 °F - 68.0 °F 87% 29.84 in 10.0 mi SSW 3.5 mph - N/A   Clear
4:53 AM 72.0 °F - 68.0 °F 87% 29.85 in 10.0 mi SSW 3.5 mph - N/A   Clear
5:53 AM 71.1 °F - 68.0 °F 90% 29.85 in 10.0 mi SSW 3.5 mph - N/A   Partly Cloudy
6:53 AM 71.1 °F - 68.0 °F 90% 29.84 in 10.0 mi South 3.5 mph - N/A   Partly Cloudy
7:53 AM 73.9 °F - 69.1 °F 85% 29.84 in 10.0 mi South 5.8 mph - N/A   Clear
8:53 AM 78.1 °F - 69.1 °F 74% 29.85 in 10.0 mi South 9.2 mph - N/A   Partly Cloudy
9:53 AM 82.0 °F 84.9 °F 68.0 °F 62% 29.85 in 10.0 mi SSE 12.7 mph - N/A   Scattered Clouds
10:53 AM 84.0 °F 87.0 °F 68.0 °F 58% 29.85 in 10.0 mi South 12.7 mph 18.4 mph N/A   Scattered Clouds
11:53 AM 84.0 °F 86.3 °F 66.0 °F 55% 29.84 in 10.0 mi SSW 12.7 mph - N/A   Scattered Clouds
12:53 PM 86.0 °F 88.2 °F 66.0 °F 51% 29.83 in 10.0 mi South 9.2 mph 18.4 mph N/A   Scattered Clouds
1:53 PM 87.1 °F 89.9 °F 66.9 °F 51% 29.81 in 10.0 mi South 11.5 mph 20.7 mph N/A   Partly Cloudy
2:53 PM 86.0 °F 88.2 °F 66.0 °F 51% 29.78 in 10.0 mi South 16.1 mph 23.0 mph N/A   Partly Cloudy
3:53 PM 86.0 °F 88.2 °F 66.0 °F 51% 29.77 in 10.0 mi South 15.0 mph - N/A   Scattered Clouds
4:53 PM 84.2 °F 86.6 °F 66.2 °F 55% 29.74 in 10.0 mi South 15.0 mph 24.2 mph N/A   Scattered Clouds
5:53 PM 82.9 °F 85.0 °F 66.0 °F 56% 29.75 in 10.0 mi SSE 15.0 mph 20.7 mph N/A   Scattered Clouds
6:53 PM 82.0 °F 84.5 °F 66.9 °F 60% 29.74 in 10.0 mi SSE 16.1 mph 20.7 mph N/A   Scattered Clouds
7:53 PM 79.0 °F - 66.9 °F 66% 29.74 in 10.0 mi SSE 11.5 mph 19.6 mph N/A   Partly Cloudy
8:53 PM 77.0 °F - 66.2 °F 69% 29.73 in 10.0 mi SSE 6.9 mph - N/A   Partly Cloudy
9:53 PM 75.9 °F - 68.0 °F 76% 29.75 in 10.0 mi SSE 5.8 mph - N/A   Partly Cloudy
10:53 PM 75.0 °F - 68.0 °F 79% 29.76 in 10.0 mi SSE 4.6 mph - N/A   Partly Cloudy
11:53 PM 73.9 °F - 68.0 °F 82% 29.75 in 10.0 mi SSE 5.8 mph - N/A   Partly Cloudy